User: anonymous
Location: Wawayanda State Park
(41.1833°N, 74.4333°W)
Time: 22:15:47
(UTC-04:00)
Language:

RESURS DK-1 - Orbit

View from above orbital plane
View from above orbital plane
View from above satellite
View from above satellite

Ground track
Ground track

The orbit data is extracted from the following two-line orbital elements,

1 29228U 06021A   14106.85271733  .00001302  00000-0  11037-3 0  7618
2 29228 069.9374 159.8326 0006106 298.5315 061.5225 15.00612054434379
Epoch (UTC): 16 April 2014 20:27:54
Eccentricity: 0.0006106
inclination: 69.9374°
perigee height: 561 km
apogee height: 569 km
right ascension of ascending node: 159.8326°
argument of perigee: 298.5315°
revolutions per day: 15.00612054
mean anomaly at epoch: 61.5225°
orbit number at epoch: 43437

The dashed part of the orbit path shows where the satellite is in the earth's shadow,  

DLR